Weather History for Hutchinson, MN

Change the Weather History Date:

Thursday, January 31, 2013

  Actual Average Record
Temperature  
Mean Temperature -2 °F -  
Max Temperature 6 °F 23 °F 50 °F (1989)
Min Temperature -9 °F 3 °F -21 °F (1985)
Degree Days  
Heating Degree Days 66    
Moisture  
Dew Point -7 °F    
Average Humidity 78    
Maximum Humidity 85    
Minimum Humidity 71    
Precipitation  
Precipitation 0.00 in - - ()
Sea Level Pressure  
Sea Level Pressure 30.03 in    
Wind  
Wind Speed 17 mph (WNW)    
Max Wind Speed 24 mph    
Max Gust Speed 31 mph    
Visibility 9 miles    
Events Snow    
Averages and records for this station are not official NWS values.
T = Trace of Precipitation, MM = Missing Value Source: NWS Daily Summary

Daily Weather History Graph

Daily Weather History Graph

Search for Another Location

Airport:

Trip Planner

Search our weather history database for the weather conditions in past years. The results will help you decide how hot, cold, wet, or windy it might be!

Date:

Astronomy

Jan. 31, 2013 Rise Set
Actual Time 7:37 AM CST 5:24 PM CST
Civil Twilight 7:06 AM CST 5:56 PM CST
Nautical Twilight 6:31 AM CST 6:31 PM CST
Astronomical Twilight 5:57 AM CST 7:05 PM CST
Moon 10:44 PM CST 9:23 AM CST
Length of Visible Light 10h 49m
Length of Day
9h 47m
Waning Gibbous, 79% of the Moon is Illuminated
Jan 31
Waning Gibbous
Feb 3
Last Quarter
Feb 10
New
Feb 17
First Quarter
Feb 25
Full

Hourly Weather History & Observations

Time (CST) Temp. Windchill Dew Point Humidity Pressure Visibility Wind Dir Wind Speed Gust Speed Precip Events Conditions
12:05 AM 6.8 °F -10.7 °F 1.4 °F 79% 29.78 in 10.0 mi WNW 15.0 mph 23.0 mph N/A   Overcast
12:30 AM 5.0 °F -13.6 °F 1.4 °F 85% 29.79 in 7.0 mi WNW 16.1 mph - N/A   Overcast
12:45 AM 3.2 °F -14.6 °F -0.4 °F 85% 29.79 in 10.0 mi WNW 13.8 mph 23.0 mph N/A   Overcast
1:05 AM 3.2 °F -16.5 °F -0.4 °F 85% 29.80 in 10.0 mi West 17.3 mph - N/A   Overcast
1:25 AM 3.2 °F -16.5 °F -2.2 °F 78% 29.80 in 10.0 mi West 17.3 mph - N/A   Overcast
1:45 AM 3.2 °F -17.6 °F -2.2 °F 78% 29.81 in 10.0 mi WNW 19.6 mph 26.5 mph N/A   Overcast
2:05 AM 1.4 °F -17.6 °F -2.2 °F 85% 29.82 in 10.0 mi WNW 15.0 mph 20.7 mph N/A   Overcast
2:25 AM 1.4 °F -19.4 °F -2.2 °F 85% 29.82 in 10.0 mi WNW 18.4 mph - N/A   Overcast
2:45 AM 1.4 °F -18.8 °F -4.0 °F 78% 29.83 in 10.0 mi WNW 17.3 mph 20.7 mph N/A   Overcast
3:05 AM 1.4 °F -17.6 °F -4.0 °F 78% 29.82 in 10.0 mi WNW 15.0 mph 21.9 mph N/A   Overcast
3:15 AM 1.4 °F -19.9 °F -3.1 °F 81% 29.82 in 10.0 mi WNW 19.6 mph - N/A   Overcast
3:28 AM 1.4 °F -19.4 °F -3.1 °F 81% 29.83 in 10.0 mi WNW 18.4 mph 23.0 mph N/A   Overcast
3:48 AM 1.4 °F -17.6 °F -3.1 °F 81% 29.83 in 10.0 mi WNW 15.0 mph 21.9 mph N/A   Overcast
4:08 AM 0.7 °F -18.5 °F -3.8 °F 81% 29.84 in 10.0 mi West 15.0 mph 18.4 mph N/A   Overcast
4:28 AM 0.5 °F -19.4 °F -4.0 °F 81% 29.85 in 7.0 mi West 16.1 mph 21.9 mph N/A   Overcast
4:48 AM 0.3 °F -20.8 °F -4.2 °F 81% 29.85 in 7.0 mi WNW 18.4 mph 24.2 mph N/A   Overcast
5:08 AM 0.3 °F -20.2 °F -4.2 °F 81% 29.86 in 7.0 mi WNW 17.3 mph 26.5 mph N/A   Overcast
5:29 AM -0.4 °F -21.2 °F -5.1 °F 81% 29.87 in 10.0 mi WNW 17.3 mph 27.6 mph N/A   Overcast
5:48 AM -0.6 °F -22.5 °F -5.3 °F 81% 29.88 in 5.0 mi West 19.6 mph 26.5 mph N/A   Overcast
6:08 AM -0.9 °F -23.5 °F -5.4 °F 81% 29.89 in 5.0 mi WNW 20.7 mph 25.3 mph N/A Snow Light Snow
6:28 AM -0.9 °F -23.0 °F -5.8 °F 80% 29.89 in 10.0 mi WNW 19.6 mph 27.6 mph N/A   Overcast
6:49 AM -2.0 °F -25.0 °F -7.2 °F 78% 29.91 in 7.0 mi WNW 20.7 mph - N/A   Overcast
7:08 AM -3.1 °F -25.3 °F -8.1 °F 79% 29.92 in 10.0 mi WNW 18.4 mph 26.5 mph N/A   Overcast
7:28 AM -3.1 °F -25.8 °F -8.3 °F 78% 29.93 in 10.0 mi WNW 19.6 mph 26.5 mph N/A   Overcast
7:48 AM -3.1 °F -24.7 °F -8.1 °F 79% 29.94 in 10.0 mi WNW 17.3 mph 26.5 mph N/A   Overcast
8:08 AM -3.5 °F -24.5 °F -8.5 °F 79% 29.96 in 10.0 mi WNW 16.1 mph 23.0 mph N/A   Overcast
8:28 AM -3.6 °F -27.1 °F -8.7 °F 79% 29.97 in 7.0 mi West 20.7 mph 25.3 mph N/A   Overcast
8:48 AM -4.9 °F -28.2 °F -10.3 °F 78% 29.97 in 7.0 mi WNW 19.6 mph 25.3 mph N/A   Overcast
9:13 AM -4.9 °F -27.0 °F -10.5 °F 77% 29.99 in 10.0 mi WNW 17.3 mph 28.8 mph N/A   Overcast
9:29 AM -4.9 °F -28.8 °F -10.5 °F 77% 30.00 in 10.0 mi WNW 20.7 mph 25.3 mph N/A   Overcast
9:48 AM -3.5 °F -26.3 °F -9.0 °F 77% 30.02 in 7.0 mi West 19.6 mph 26.5 mph N/A   Overcast
10:08 AM -3.5 °F -24.5 °F -9.2 °F 76% 30.03 in 7.0 mi WNW 16.1 mph 23.0 mph N/A   Overcast
10:28 AM -3.1 °F -27.4 °F -8.7 °F 77% 30.03 in 5.0 mi WNW 23.0 mph 27.6 mph N/A   Haze
11:08 AM -1.1 °F -24.3 °F -6.9 °F 77% 30.05 in 3.0 mi WNW 21.9 mph 28.8 mph N/A   Haze
11:28 AM -0.9 °F -22.4 °F -7.4 °F 74% 30.05 in 5.0 mi WNW 18.4 mph 28.8 mph N/A   Haze
11:47 AM -0.9 °F -23.0 °F -7.4 °F 74% 30.06 in 10.0 mi WNW 19.6 mph 27.6 mph N/A   Scattered Clouds
12:09 PM -0.8 °F -22.8 °F -7.4 °F 73% 30.07 in 10.0 mi WNW 19.6 mph 25.3 mph N/A   Clear
12:24 PM -0.0 °F -20.7 °F -6.5 °F 74% 30.07 in 10.0 mi WNW 17.3 mph 26.5 mph N/A   Clear
12:50 PM -0.4 °F -21.7 °F -5.8 °F 78% 30.07 in 7.0 mi WNW 18.4 mph 25.3 mph N/A   Mostly Cloudy
1:10 PM -0.4 °F -24.3 °F -5.8 °F 78% 30.08 in 4.0 mi WNW 24.2 mph 29.9 mph N/A   Overcast
1:30 PM -0.4 °F -22.3 °F -5.8 °F 78% 30.09 in 5.0 mi WNW 19.6 mph 28.8 mph N/A   Mostly Cloudy
1:45 PM -0.4 °F -22.8 °F -5.8 °F 78% 30.09 in 7.0 mi WNW 20.7 mph 28.8 mph N/A   Scattered Clouds
2:10 PM -0.4 °F -23.8 °F -5.8 °F 78% 30.10 in 10.0 mi WNW 23.0 mph 26.5 mph N/A   Clear
2:25 PM -0.4 °F -23.3 °F -5.8 °F 78% 30.10 in 10.0 mi West 21.9 mph 27.6 mph N/A   Clear
2:45 PM -0.4 °F -23.8 °F -7.6 °F 72% 30.11 in 10.0 mi WNW 23.0 mph 31.1 mph N/A   Clear
3:05 PM -0.4 °F -21.7 °F -7.6 °F 72% 30.13 in 10.0 mi WNW 18.4 mph 29.9 mph N/A   Clear
3:30 PM -0.4 °F -22.8 °F -7.6 °F 72% 30.14 in 10.0 mi WNW 20.7 mph 31.1 mph N/A   Clear
3:45 PM -0.4 °F -23.8 °F -7.6 °F 72% 30.15 in 10.0 mi WNW 23.0 mph 28.8 mph N/A   Clear
4:05 PM -0.4 °F -22.3 °F -7.6 °F 72% 30.15 in 10.0 mi WNW 19.6 mph 27.6 mph N/A   Clear
4:25 PM -2.2 °F -24.1 °F -7.6 °F 78% 30.17 in 10.0 mi WNW 18.4 mph 28.8 mph N/A   Clear
4:45 PM -4.0 °F -27.6 °F -9.4 °F 78% 30.16 in 10.0 mi WNW 20.7 mph 29.9 mph N/A   Clear
5:10 PM -4.0 °F -27.0 °F -9.4 °F 78% 30.18 in 10.0 mi WNW 19.6 mph 25.3 mph N/A   Clear
5:25 PM -4.0 °F -25.2 °F -9.4 °F 78% 30.19 in 10.0 mi WNW 16.1 mph 24.2 mph N/A   Clear
5:45 PM -4.0 °F -28.6 °F -9.4 °F 78% 30.19 in 10.0 mi WNW 23.0 mph 26.5 mph N/A   Clear
6:05 PM -4.0 °F -27.0 °F -11.2 °F 71% 30.20 in 10.0 mi WNW 19.6 mph 24.2 mph N/A   Clear
6:16 PM -4.9 °F -26.3 °F -10.8 °F 76% 30.20 in 10.0 mi WNW 16.1 mph 26.5 mph N/A   Clear
6:28 PM -4.9 °F -27.6 °F -11.2 °F 74% 30.20 in 10.0 mi WNW 18.4 mph 26.5 mph N/A   Clear
6:48 PM -4.9 °F -26.3 °F -10.8 °F 76% 30.21 in 10.0 mi WNW 16.1 mph 23.0 mph N/A   Clear
7:08 PM -5.8 °F -26.0 °F -11.9 °F 75% 30.21 in 10.0 mi WNW 13.8 mph 20.7 mph N/A   Clear
7:28 PM -5.8 °F -28.2 °F -12.3 °F 74% 30.22 in 10.0 mi WNW 17.3 mph 24.2 mph N/A   Clear
8:08 PM -6.0 °F -27.7 °F -12.5 °F 74% 30.23 in 10.0 mi West 16.1 mph 19.6 mph N/A   Clear
8:28 PM -6.0 °F -27.7 °F -12.1 °F 75% 30.24 in 10.0 mi West 16.1 mph - N/A   Clear
8:48 PM -6.0 °F -25.5 °F -11.9 °F 75% 30.25 in 10.0 mi WNW 12.7 mph 19.6 mph N/A   Clear
9:08 PM -6.0 °F -25.5 °F -12.3 °F 74% 30.25 in 10.0 mi West 12.7 mph 19.6 mph N/A   Clear
9:28 PM -6.0 °F -26.3 °F -12.1 °F 75% 30.25 in 10.0 mi West 13.8 mph - N/A   Clear
9:59 PM -6.0 °F -25.5 °F -12.3 °F 74% 30.26 in 10.0 mi West 12.7 mph 20.7 mph N/A   Clear
10:28 PM -6.0 °F -27.7 °F -12.1 °F 75% 30.26 in 10.0 mi WNW 16.1 mph - N/A   Clear
10:37 PM - - - N/A% 30.26 in - West 12.7 mph - N/A   Unknown
11:05 PM -9.4 °F -29.8 °F -14.8 °F 77% 30.26 in 10.0 mi WNW 12.7 mph - N/A   Clear
11:25 PM -9.4 °F -28.9 °F -14.8 °F 77% 30.26 in 10.0 mi WNW 11.5 mph 19.6 mph N/A   Clear